Weather History for KSUX - January, 2014

Change the Weather History Date:

Saturday, January 11, 2014

  Actual Average Record
Temperature  
Mean Temperature 30 °F 20 °F  
Max Temperature 42 °F 30 °F 56 °F (1986)
Min Temperature 18 °F 10 °F -26 °F (1918)
Degree Days  
Heating Degree Days 35 45  
Month to date heating degree days 587 495  
Since 1 July heating degree days 3461 3287  
Cooling Degree Days 0 0  
Month to date cooling degree days 0 0  
Year to date cooling degree days 0 0  
Moisture  
Dew Point 22 °F    
Average Humidity 76    
Maximum Humidity 96    
Minimum Humidity 55    
Precipitation  
Precipitation 0.00 in 0.02 in 0.48 in (1916)
Month to date precipitation 0.17 0.22  
Year to date precipitation 0.17 0.22  
Snow  
Snow 0.00 in 0.20 in 8.00 in (1905)
Month to date snowfall 1.2 2.3  
Since 1 July snowfall 4.4 15.5  
Snow Depth 1.00 in    
Sea Level Pressure  
Sea Level Pressure 29.73 in    
Wind  
Wind Speed 10 mph (NW)    
Max Wind Speed 26 mph    
Max Gust Speed 35 mph    
Visibility 9 miles    
Events      
T = Trace of Precipitation, MM = Missing Value Source: NWS Daily Summary

Daily Weather History Graph

Daily Weather History Graph

Search for Another Location

Airport or City:

Trip Planner

Search our weather history database for the weather conditions in past years. The results will help you decide how hot, cold, wet, or windy it might be!

Date:

Astronomy

Jan. 11, 2014 Rise Set
Actual Time 7:53 AM CST 5:13 PM CST
Civil Twilight 7:22 AM CST 5:44 PM CST
Nautical Twilight 6:47 AM CST 6:19 PM CST
Astronomical Twilight 6:13 AM CST 6:53 PM CST
Moon 1:59 PM CST (1/11) 3:58 AM CST (1/11)
Length of Visible Light 10h 22m
Length of Day
9h 19m
Waxing Gibbous, 83% of the Moon is Illuminated
Jan 11
Waxing Gibbous
Jan 15
Full
Jan 23
Last Quarter
Jan 30
New
Feb 6
First Quarter

Hourly Weather History & Observations

Time (CST) Temp. Windchill Dew Point Humidity Pressure Visibility Wind Dir Wind Speed Gust Speed Precip Events Conditions
12:52 AM 24.1 °F - 19.9 °F 84% 29.64 in 3.0 mi Calm Calm - N/A   Clear
12:55 AM 21.0 °F - 18.0 °F 88% 29.60 in 0.8 mi Calm Calm - N/A   Clear
1:09 AM 21.9 °F 17.2 °F 19.0 °F 89% 29.60 in 2.0 mi NW 3.5 mph - N/A   Clear
1:16 AM 21.9 °F 15.7 °F 19.9 °F 92% 29.60 in 8.0 mi NW 4.6 mph - N/A   Clear
1:52 AM 19.9 °F - 17.1 °F 89% 29.64 in 10.0 mi Calm Calm - N/A   Clear
2:52 AM 21.0 °F 12.4 °F 18.0 °F 88% 29.65 in 10.0 mi WNW 6.9 mph - N/A   Clear
3:52 AM 21.0 °F 11.4 °F 18.0 °F 88% 29.66 in 10.0 mi WNW 8.1 mph - N/A   Mostly Cloudy
4:52 AM 23.0 °F 18.4 °F 19.9 °F 88% 29.67 in 10.0 mi NW 3.5 mph - N/A   Clear
5:52 AM 27.0 °F 16.7 °F 21.9 °F 81% 29.68 in 10.0 mi WNW 11.5 mph - N/A   Clear
6:52 AM 25.0 °F 16.3 °F 21.0 °F 85% 29.70 in 10.0 mi NW 8.1 mph - N/A   Clear
7:52 AM 28.9 °F 16.1 °F 23.0 °F 78% 29.72 in 10.0 mi NW 19.6 mph 25.3 mph N/A   Clear
8:52 AM 28.9 °F 15.4 °F 23.0 °F 78% 29.74 in 10.0 mi NW 21.9 mph 29.9 mph N/A   Clear
9:52 AM 28.9 °F 15.4 °F 23.0 °F 78% 29.80 in 10.0 mi NW 21.9 mph 29.9 mph N/A   Clear
10:52 AM 30.9 °F 18.7 °F 24.1 °F 76% 29.84 in 10.0 mi NNW 19.6 mph - N/A   Scattered Clouds
11:52 AM 33.1 °F 22.6 °F 24.1 °F 70% 29.82 in 10.0 mi NW 16.1 mph - N/A   Partly Cloudy
12:52 PM 36.0 °F 26.7 °F 26.1 °F 67% 29.80 in 10.0 mi NW 15.0 mph - N/A   Clear
1:52 PM 39.0 °F 32.3 °F 27.0 °F 62% 29.81 in 10.0 mi NNW 10.4 mph - N/A   Clear
2:52 PM 41.0 °F 36.4 °F 27.0 °F 57% 29.80 in 10.0 mi NW 6.9 mph - N/A   Clear
3:52 PM 42.1 °F 39.2 °F 28.0 °F 58% 29.82 in 10.0 mi NNW 4.6 mph - N/A   Clear
4:52 PM 39.9 °F 36.7 °F 27.0 °F 60% 29.81 in 10.0 mi WSW 4.6 mph - N/A   Clear
5:52 PM 34.0 °F 29.8 °F 25.0 °F 70% 29.80 in 10.0 mi ESE 4.6 mph - N/A   Clear
6:52 PM 26.1 °F 17.6 °F 21.9 °F 84% 29.79 in 10.0 mi SE 8.1 mph - N/A   Clear
7:52 PM 28.0 °F 20.8 °F 23.0 °F 81% 29.78 in 10.0 mi ESE 6.9 mph - N/A   Clear
8:52 PM 24.1 °F 14.4 °F 19.9 °F 84% 29.77 in 10.0 mi ESE 9.2 mph - N/A   Clear
9:52 PM 25.0 °F 15.5 °F 21.0 °F 85% 29.74 in 10.0 mi ESE 9.2 mph - N/A   Clear
10:52 PM 25.0 °F 14.2 °F 19.9 °F 81% 29.71 in 10.0 mi ESE 11.5 mph - N/A   Clear
11:52 PM 26.1 °F 15.0 °F 21.0 °F 81% 29.67 in 10.0 mi ESE 12.7 mph - N/A   Clear